,,,PA_Meas_PMT16A,,PR_Meas_QMR101_102,,RH_Meas_QMH101,,SR_Meas_QMS101,,TA_Meas_QMH101,,GenWind,,GenWind,
date,time,status,PA,status,PR,status,RH,status,SR,status,TA,status,DirAvg,status,SpdAvg,
2011-09-04, 00:00:04,VALID,1010.192,VALID,0.0,VALID,103.909,VALID,0.0,VALID,24.084,VALID,41.0,VALID,0.281,
2011-09-04, 00:01:04,VALID,1010.168,VALID,0.0,VALID,103.855,VALID,0.0,VALID,24.103,VALID,40.0,VALID,0.298,
2011-09-04, 00:02:04,VALID,1010.187,VALID,0.0,VALID,103.817,VALID,0.0,VALID,24.103,VALID,40.0,VALID,0.326,
2011-09-04, 00:03:04,VALID,1010.178,VALID,0.0,VALID,103.794,VALID,0.0,VALID,24.103,VALID,41.0,VALID,0.171,
2011-09-04, 00:04:04,VALID,1010.159,VALID,0.0,VALID,103.779,VALID,0.0,VALID,24.084,VALID,40.0,VALID,0.203,
2011-09-04, 00:05:04,VALID,1010.169,VALID,0.0,VALID,103.794,VALID,0.0,VALID,24.084,VALID,41.0,VALID,0.347,
2011-09-04, 00:06:04,VALID,1010.137,VALID,0.0,VALID,103.779,VALID,0.0,VALID,24.064,VALID,41.0,VALID,0.421,
2011-09-04, 00:07:04,VALID,1010.146,VALID,0.0,VALID,103.756,VALID,0.0,VALID,24.025,VALID,40.0,VALID,0.558,
2011-09-04, 00:08:04,VALID,1010.136,VALID,0.0,VALID,103.771,VALID,0.0,VALID,24.025,VALID,40.0,VALID,0.467,
2011-09-04, 00:09:04,VALID,1010.156,VALID,0.0,VALID,103.764,VALID,0.0,VALID,24.006,VALID,41.0,VALID,0.255,
2011-09-04, 00:10:04,VALID,1010.118,VALID,0.0,VALID,103.771,VALID,0.0,VALID,24.025,VALID,41.0,VALID,0.27,
2011-09-04, 00:11:04,VALID,1010.138,VALID,0.0,VALID,103.741,VALID,0.0,VALID,24.027,VALID,41.0,VALID,0.174,
2011-09-04, 00:12:04,VALID,1010.128,VALID,0.0,VALID,103.764,VALID,0.0,VALID,24.006,VALID,40.0,VALID,0.141,
2011-09-04, 00:13:04,VALID,1010.117,VALID,0.0,VALID,103.787,VALID,0.0,VALID,23.986,VALID,41.0,VALID,0.007,
2011-09-04, 00:14:04,VALID,1010.112,VALID,0.0,VALID,103.794,VALID,0.0,VALID,24.006,VALID,41.0,VALID,0.171,
2011-09-04, 00:15:04,VALID,1010.121,VALID,0.0,VALID,103.764,VALID,0.0,VALID,23.967,VALID,40.0,VALID,0.145,
2011-09-04, 00:16:04,VALID,1010.108,VALID,0.0,VALID,103.787,VALID,0.0,VALID,23.947,VALID,40.0,VALID,0.259,
2011-09-04, 00:17:04,VALID,1010.085,VALID,0.0,VALID,103.794,VALID,0.0,VALID,23.947,VALID,41.0,VALID,0.1,
2011-09-04, 00:18:04,VALID,1010.086,VALID,0.0,VALID,103.802,VALID,0.0,VALID,23.928,VALID,40.0,VALID,0.179,
2011-09-04, 00:19:04,VALID,1010.086,VALID,0.0,VALID,103.84,VALID,0.0,VALID,23.928,VALID,41.0,VALID,0.0,
2011-09-04, 00:20:04,VALID,1010.071,VALID,0.0,VALID,103.901,VALID,0.0,VALID,23.908,VALID,40.0,VALID,0.006,
2011-09-04, 00:21:04,VALID,1010.08,VALID,0.0,VALID,103.97,VALID,0.0,VALID,23.908,VALID,40.0,VALID,0.34,
2011-09-04, 00:22:04,VALID,1010.095,VALID,0.0,VALID,104.0,VALID,0.0,VALID,23.928,VALID,41.0,VALID,0.234,
2011-09-04, 00:23:04,VALID,1010.1,VALID,0.0,VALID,104.0,VALID,0.0,VALID,23.947,VALID,41.0,VALID,0.002,
2011-09-04, 00:24:04,VALID,1010.084,VALID,0.0,VALID,104.0,VALID,0.0,VALID,23.947,VALID,41.0,VALID,0.155,
2011-09-04, 00:25:04,VALID,1010.115,VALID,0.0,VALID,104.0,VALID,0.0,VALID,23.947,VALID,41.0,VALID,0.234,
2011-09-04, 00:26:04,VALID,1010.114,VALID,0.0,VALID,104.0,VALID,0.0,VALID,23.928,VALID,40.0,VALID,0.436,
2011-09-04, 00:27:04,VALID,1010.1,VALID,0.0,VALID,103.954,VALID,0.0,VALID,23.928,VALID,41.0,VALID,0.468,
2011-09-04, 00:28:04,VALID,1010.072,VALID,0.0,VALID,103.954,VALID,0.0,VALID,23.908,VALID,40.0,VALID,0.35,
2011-09-04, 00:29:04,VALID,1010.079,VALID,0.0,VALID,103.954,VALID,0.0,VALID,23.889,VALID,41.0,VALID,0.154,
2011-09-04, 00:30:04,VALID,1010.076,VALID,0.0,VALID,103.97,VALID,0.0,VALID,23.869,VALID,40.0,VALID,0.074,
2011-09-04, 00:31:04,VALID,1010.061,VALID,0.0,VALID,103.985,VALID,0.0,VALID,23.85,VALID,40.0,VALID,0.002,
2011-09-04, 00:32:04,VALID,1010.06,VALID,0.0,VALID,104.0,VALID,0.0,VALID,23.85,VALID,40.0,VALID,0.0,
2011-09-04, 00:33:04,VALID,1010.044,VALID,0.0,VALID,104.0,VALID,0.0,VALID,23.83,VALID,40.0,VALID,0.0,
2011-09-04, 00:34:04,VALID,1010.066,VALID,0.0,VALID,104.0,VALID,0.0,VALID,23.811,VALID,41.0,VALID,0.146,
2011-09-04, 00:35:04,VALID,1010.061,VALID,0.0,VALID,104.0,VALID,0.0,VALID,23.813,VALID,41.0,VALID,0.096,
2011-09-04, 00:36:04,VALID,1010.042,VALID,0.0,VALID,104.0,VALID,0.0,VALID,23.811,VALID,41.0,VALID,0.207,
2011-09-04, 00:37:04,VALID,1010.05,VALID,0.0,VALID,104.0,VALID,0.0,VALID,23.832,VALID,40.0,VALID,0.156,
2011-09-04, 00:38:04,VALID,1010.044,VALID,0.0,VALID,104.0,VALID,0.0,VALID,23.832,VALID,41.0,VALID,0.037,
2011-09-04, 00:39:04,VALID,1010.015,VALID,0.0,VALID,104.0,VALID,0.0,VALID,23.83,VALID,41.0,VALID,0.085,
2011-09-04, 00:40:04,VALID,1010.018,VALID,0.0,VALID,104.0,VALID,0.0,VALID,23.83,VALID,41.0,VALID,0.132,
2011-09-04, 00:41:04,VALID,1010.039,VALID,0.0,VALID,104.0,VALID,0.0,VALID,23.83,VALID,40.0,VALID,0.137,
2011-09-04, 00:42:04,VALID,1010.048,VALID,0.0,VALID,104.0,VALID,0.0,VALID,23.83,VALID,40.0,VALID,0.172,
2011-09-04, 00:43:04,VALID,1010.063,VALID,0.0,VALID,104.0,VALID,0.0,VALID,23.83,VALID,41.0,VALID,0.0,
2011-09-04, 00:44:04,VALID,1010.074,VALID,0.0,VALID,104.0,VALID,0.0,VALID,23.83,VALID,41.0,VALID,0.0,
2011-09-04, 00:45:04,VALID,1010.097,VALID,0.0,VALID,104.0,VALID,0.0,VALID,23.811,VALID,41.0,VALID,0.0,
2011-09-04, 00:46:04,VALID,1010.097,VALID,0.0,VALID,104.0,VALID,0.0,VALID,23.832,VALID,41.0,VALID,0.0,
2011-09-04, 00:47:04,VALID,1010.085,VALID,0.0,VALID,104.0,VALID,0.0,VALID,23.832,VALID,41.0,VALID,0.0,
2011-09-04, 00:48:04,VALID,1010.108,VALID,0.0,VALID,104.0,VALID,0.0,VALID,23.813,VALID,41.0,VALID,0.0,
2011-09-04, 00:49:04,VALID,1010.095,VALID,0.0,VALID,104.0,VALID,0.0,VALID,23.772,VALID,41.0,VALID,0.0,
2011-09-04, 00:50:05,VALID,1010.085,VALID,0.0,VALID,104.0,VALID,0.0,VALID,23.793,VALID,41.0,VALID,0.0,
2011-09-04, 00:51:05,VALID,1010.064,VALID,0.0,VALID,104.0,VALID,0.0,VALID,23.791,VALID,41.0,VALID,0.0,
2011-09-04, 00:52:05,VALID,1010.06,VALID,0.0,VALID,104.0,VALID,0.0,VALID,23.793,VALID,40.0,VALID,0.0,
2011-09-04, 00:53:05,VALID,1010.053,VALID,0.0,VALID,104.0,VALID,0.0,VALID,23.791,VALID,41.0,VALID,0.0,
2011-09-04, 00:54:05,VALID,1010.01,VALID,0.0,VALID,104.0,VALID,0.0,VALID,23.813,VALID,41.0,VALID,0.0,
2011-09-04, 00:55:05,VALID,1010.043,VALID,0.0,VALID,104.0,VALID,0.0,VALID,23.811,VALID,41.0,VALID,0.0,
2011-09-04, 00:56:05,VALID,1010.018,VALID,0.0,VALID,104.0,VALID,0.0,VALID,23.832,VALID,41.0,VALID,0.0,
2011-09-04, 00:57:05,VALID,1010.011,VALID,0.0,VALID,104.0,VALID,0.0,VALID,23.83,VALID,40.0,VALID,0.0,
2011-09-04, 00:58:05,VALID,1010.043,VALID,0.0,VALID,104.0,VALID,0.0,VALID,23.83,VALID,41.0,VALID,0.217,
2011-09-04, 00:59:05,VALID,1010.02,VALID,0.0,VALID,104.0,VALID,0.0,VALID,23.83,VALID,41.0,VALID,0.353,
2011-09-04, 01:00:05,VALID,1010.052,VALID,0.0,VALID,104.0,VALID,0.0,VALID,23.83,VALID,40.0,VALID,0.355,
2011-09-04, 01:01:05,VALID,1010.061,VALID,0.0,VALID,104.0,VALID,0.0,VALID,23.83,VALID,41.0,VALID,0.403,
2011-09-04, 01:02:05,VALID,1010.069,VALID,0.0,VALID,104.0,VALID,0.0,VALID,23.811,VALID,41.0,VALID,0.442,
2011-09-04, 01:03:05,VALID,1010.106,VALID,0.0,VALID,104.0,VALID,0.0,VALID,23.791,VALID,41.0,VALID,0.48,
2011-09-04, 01:04:05,VALID,1010.084,VALID,0.0,VALID,104.0,VALID,0.0,VALID,23.791,VALID,40.0,VALID,0.502,
2011-09-04, 01:05:05,VALID,1010.111,VALID,0.0,VALID,103.893,VALID,0.0,VALID,23.811,VALID,40.0,VALID,0.455,
2011-09-04, 01:06:05,VALID,1010.15,VALID,0.0,VALID,103.787,VALID,0.0,VALID,23.83,VALID,40.0,VALID,0.159,
2011-09-04, 01:07:05,VALID,1010.134,VALID,0.0,VALID,103.703,VALID,0.0,VALID,23.85,VALID,40.0,VALID,0.205,
2011-09-04, 01:08:05,VALID,1010.12,VALID,0.0,VALID,103.664,VALID,0.0,VALID,23.85,VALID,40.0,VALID,0.123,
2011-09-04, 01:09:05,VALID,1010.121,VALID,0.0,VALID,103.649,VALID,0.0,VALID,23.85,VALID,40.0,VALID,0.0,
2011-09-04, 01:10:05,VALID,1010.124,VALID,0.0,VALID,103.603,VALID,0.0,VALID,23.83,VALID,41.0,VALID,0.207,
2011-09-04, 01:11:05,VALID,1010.128,VALID,0.0,VALID,103.642,VALID,0.0,VALID,23.83,VALID,40.0,VALID,0.128,
2011-09-04, 01:12:05,VALID,1010.135,VALID,0.0,VALID,103.68,VALID,0.0,VALID,23.83,VALID,40.0,VALID,0.1,
2011-09-04, 01:13:05,VALID,1010.105,VALID,0.0,VALID,103.657,VALID,0.0,VALID,23.832,VALID,40.0,VALID,0.0,
2011-09-04, 01:14:05,VALID,1010.116,VALID,0.0,VALID,103.649,VALID,0.0,VALID,23.811,VALID,40.0,VALID,0.0,
2011-09-04, 01:15:05,VALID,1010.122,VALID,0.0,VALID,103.71,VALID,0.0,VALID,23.791,VALID,40.0,VALID,0.0,
2011-09-04, 01:16:05,VALID,1010.114,VALID,0.0,VALID,103.771,VALID,0.0,VALID,23.811,VALID,40.0,VALID,0.0,
2011-09-04, 01:17:05,VALID,1010.088,VALID,0.0,VALID,103.878,VALID,0.0,VALID,23.83,VALID,40.0,VALID,0.0,
2011-09-04, 01:18:05,VALID,1010.111,VALID,0.0,VALID,103.931,VALID,0.0,VALID,23.83,VALID,40.0,VALID,0.0,
2011-09-04, 01:19:05,VALID,1010.121,VALID,0.0,VALID,104.0,VALID,0.0,VALID,23.83,VALID,40.0,VALID,0.0,
2011-09-04, 01:20:05,VALID,1010.116,VALID,0.0,VALID,104.0,VALID,0.0,VALID,23.83,VALID,40.0,VALID,0.0,
2011-09-04, 01:21:05,VALID,1010.123,VALID,0.0,VALID,104.0,VALID,0.0,VALID,23.85,VALID,40.0,VALID,0.0,
2011-09-04, 01:22:05,VALID,1010.128,VALID,0.0,VALID,104.0,VALID,0.0,VALID,23.869,VALID,40.0,VALID,0.0,
2011-09-04, 01:23:05,VALID,1010.094,VALID,0.0,VALID,104.0,VALID,0.0,VALID,23.889,VALID,40.0,VALID,0.0,
2011-09-04, 01:24:05,VALID,1010.09,VALID,0.0,VALID,104.0,VALID,0.0,VALID,23.889,VALID,40.0,VALID,0.0,
2011-09-04, 01:25:05,VALID,1010.059,VALID,0.0,VALID,104.0,VALID,0.0,VALID,23.908,VALID,40.0,VALID,0.143,
2011-09-04, 01:26:05,VALID,1010.079,VALID,0.0,VALID,104.0,VALID,0.0,VALID,23.908,VALID,40.0,VALID,0.0,
2011-09-04, 01:27:05,VALID,1010.008,VALID,0.0,VALID,104.0,VALID,0.0,VALID,23.93,VALID,40.0,VALID,0.0,
2011-09-04, 01:28:05,VALID,1010.027,VALID,0.0,VALID,104.0,VALID,0.0,VALID,23.928,VALID,40.0,VALID,0.056,
2011-09-04, 01:29:05,VALID,1010.004,VALID,0.0,VALID,104.0,VALID,0.0,VALID,23.928,VALID,40.0,VALID,0.0,
2011-09-04, 01:30:05,VALID,1010.001,VALID,0.0,VALID,104.0,VALID,0.0,VALID,23.986,VALID,40.0,VALID,0.101,
2011-09-04, 01:31:05,VALID,1009.976,VALID,0.0,VALID,104.0,VALID,0.0,VALID,24.006,VALID,40.0,VALID,0.0,
2011-09-04, 01:32:05,VALID,1009.99,VALID,0.0,VALID,104.0,VALID,0.0,VALID,24.006,VALID,40.0,VALID,0.0,
2011-09-04, 01:33:05,VALID,1009.99,VALID,0.0,VALID,104.0,VALID,0.0,VALID,23.986,VALID,40.0,VALID,0.0,
2011-09-04, 01:34:05,VALID,1009.994,VALID,0.0,VALID,104.0,VALID,0.0,VALID,23.986,VALID,40.0,VALID,0.0,
2011-09-04, 01:35:05,VALID,1009.99,VALID,0.0,VALID,104.0,VALID,0.0,VALID,23.967,VALID,40.0,VALID,0.0,
2011-09-04, 01:36:05,VALID,1009.995,VALID,0.0,VALID,103.87,VALID,0.0,VALID,23.947,VALID,40.0,VALID,0.157,
2011-09-04, 01:37:05,VALID,1010.036,VALID,0.0,VALID,103.756,VALID,0.0,VALID,23.967,VALID,40.0,VALID,0.336,
2011-09-04, 01:38:05,VALID,1010.014,VALID,0.0,VALID,103.603,VALID,0.0,VALID,23.947,VALID,40.0,VALID,0.235,
2011-09-04, 01:39:05,VALID,1010.003,VALID,0.0,VALID,103.619,VALID,0.0,VALID,23.947,VALID,40.0,VALID,0.163,
2011-09-04, 01:40:05,VALID,1010.022,VALID,0.0,VALID,103.626,VALID,0.0,VALID,23.947,VALID,40.0,VALID,0.286,
2011-09-04, 01:41:05,VALID,1010.005,VALID,0.0,VALID,103.558,VALID,0.0,VALID,23.93,VALID,40.0,VALID,0.261,
2011-09-04, 01:42:05,VALID,1010.013,VALID,0.0,VALID,103.39,VALID,0.0,VALID,23.91,VALID,40.0,VALID,0.253,
2011-09-04, 01:43:05,VALID,1010.021,VALID,0.0,VALID,103.504,VALID,0.0,VALID,23.889,VALID,40.0,VALID,0.157,
2011-09-04, 01:44:05,VALID,1010.029,VALID,0.0,VALID,103.573,VALID,0.0,VALID,23.891,VALID,40.0,VALID,0.116,
2011-09-04, 01:45:05,VALID,1010.047,VALID,0.0,VALID,103.558,VALID,0.0,VALID,23.85,VALID,40.0,VALID,0.18,
2011-09-04, 01:46:05,VALID,1010.066,VALID,0.0,VALID,103.489,VALID,0.0,VALID,23.811,VALID,40.0,VALID,0.336,
2011-09-04, 01:47:05,VALID,1010.062,VALID,0.0,VALID,103.573,VALID,0.0,VALID,23.791,VALID,40.0,VALID,0.168,
2011-09-04, 01:48:05,VALID,1010.064,VALID,0.0,VALID,103.573,VALID,0.0,VALID,23.791,VALID,40.0,VALID,0.098,
2011-09-04, 01:49:05,VALID,1010.08,VALID,0.0,VALID,103.542,VALID,0.0,VALID,23.752,VALID,40.0,VALID,0.154,
2011-09-04, 01:50:05,VALID,1010.063,VALID,0.0,VALID,103.664,VALID,0.0,VALID,23.774,VALID,40.0,VALID,0.118,
2011-09-04, 01:51:05,VALID,1010.046,VALID,0.0,VALID,103.687,VALID,0.0,VALID,23.752,VALID,40.0,VALID,0.0,
2011-09-04, 01:52:05,VALID,1010.03,VALID,0.0,VALID,103.733,VALID,0.0,VALID,23.752,VALID,40.0,VALID,0.0,
2011-09-04, 01:53:05,VALID,1010.021,VALID,0.0,VALID,103.787,VALID,0.0,VALID,23.733,VALID,40.0,VALID,0.0,
2011-09-04, 01:54:05,VALID,1010.047,VALID,0.0,VALID,103.817,VALID,0.0,VALID,23.733,VALID,40.0,VALID,0.0,
2011-09-04, 01:55:05,VALID,1010.035,VALID,0.0,VALID,103.756,VALID,0.0,VALID,23.713,VALID,40.0,VALID,0.0,
2011-09-04, 01:56:05,VALID,1010.035,VALID,0.0,VALID,103.748,VALID,0.0,VALID,23.715,VALID,40.0,VALID,0.0,
2011-09-04, 01:57:05,VALID,1010.033,VALID,0.0,VALID,103.741,VALID,0.0,VALID,23.696,VALID,40.0,VALID,0.0,
2011-09-04, 01:58:05,VALID,1010.067,VALID,0.0,VALID,103.825,VALID,0.0,VALID,23.696,VALID,40.0,VALID,0.0,
2011-09-04, 01:59:05,VALID,1010.063,VALID,0.0,VALID,103.863,VALID,0.0,VALID,23.696,VALID,40.0,VALID,0.0,
2011-09-04, 02:00:05,VALID,1010.058,VALID,0.0,VALID,103.863,VALID,0.0,VALID,23.657,VALID,40.0,VALID,0.0,
2011-09-04, 02:01:05,VALID,1010.071,VALID,0.0,VALID,103.909,VALID,0.0,VALID,23.636,VALID,40.0,VALID,0.0,
2011-09-04, 02:02:05,VALID,1010.083,VALID,0.0,VALID,103.962,VALID,0.0,VALID,23.636,VALID,40.0,VALID,0.0,
2011-09-04, 02:03:05,VALID,1010.066,VALID,0.0,VALID,104.0,VALID,0.0,VALID,23.637,VALID,40.0,VALID,0.0,
2011-09-04, 02:04:05,VALID,1010.043,VALID,0.0,VALID,104.0,VALID,0.0,VALID,23.597,VALID,40.0,VALID,0.0,
2011-09-04, 02:05:05,VALID,1010.071,VALID,0.0,VALID,104.0,VALID,0.0,VALID,23.595,VALID,40.0,VALID,0.0,
2011-09-04, 02:06:05,VALID,1010.085,VALID,0.0,VALID,104.0,VALID,0.106,VALID,23.595,VALID,40.0,VALID,0.15,
2011-09-04, 02:07:05,VALID,1010.04,VALID,0.0,VALID,104.0,VALID,0.106,VALID,23.595,VALID,40.0,VALID,0.349,
2011-09-04, 02:08:05,VALID,1010.042,VALID,0.0,VALID,104.0,VALID,0.106,VALID,23.614,VALID,40.0,VALID,0.321,
2011-09-04, 02:09:05,VALID,1010.023,VALID,0.0,VALID,104.0,VALID,0.0,VALID,23.614,VALID,40.0,VALID,0.162,
2011-09-04, 02:10:05,VALID,1010.013,VALID,0.0,VALID,104.0,VALID,0.106,VALID,23.634,VALID,40.0,VALID,0.187,
2011-09-04, 02:11:05,VALID,1010.013,VALID,0.0,VALID,104.0,VALID,0.106,VALID,23.614,VALID,40.0,VALID,0.352,
2011-09-04, 02:12:05,VALID,1009.986,VALID,0.0,VALID,104.0,VALID,0.106,VALID,23.595,VALID,40.0,VALID,0.38,
2011-09-04, 02:13:05,VALID,1009.99,VALID,0.0,VALID,104.0,VALID,0.0,VALID,23.614,VALID,40.0,VALID,0.11,
2011-09-04, 02:14:05,VALID,1010.005,VALID,0.0,VALID,104.0,VALID,0.106,VALID,23.614,VALID,40.0,VALID,0.337,
2011-09-04, 02:15:05,VALID,1009.991,VALID,0.0,VALID,104.0,VALID,0.0,VALID,23.614,VALID,40.0,VALID,0.537,
2011-09-04, 02:16:05,VALID,1010.02,VALID,0.0,VALID,104.0,VALID,0.106,VALID,23.653,VALID,40.0,VALID,0.397,
2011-09-04, 02:17:05,VALID,1010.005,VALID,0.0,VALID,104.0,VALID,0.0,VALID,23.653,VALID,40.0,VALID,0.198,
2011-09-04, 02:18:05,VALID,1009.996,VALID,0.0,VALID,104.0,VALID,0.106,VALID,23.653,VALID,40.0,VALID,0.081,
2011-09-04, 02:19:05,VALID,1009.978,VALID,0.0,VALID,104.0,VALID,0.106,VALID,23.653,VALID,40.0,VALID,0.169,
2011-09-04, 02:20:05,VALID,1009.942,VALID,0.0,VALID,104.0,VALID,0.0,VALID,23.655,VALID,40.0,VALID,0.112,
2011-09-04, 02:21:05,VALID,1009.951,VALID,0.0,VALID,104.0,VALID,0.0,VALID,23.655,VALID,40.0,VALID,0.0,
2011-09-04, 02:22:05,VALID,1009.904,VALID,0.0,VALID,104.0,VALID,0.0,VALID,23.676,VALID,40.0,VALID,0.0,
2011-09-04, 02:23:05,VALID,1009.893,VALID,0.0,VALID,104.0,VALID,0.0,VALID,23.655,VALID,40.0,VALID,0.0,
2011-09-04, 02:24:05,VALID,1009.89,VALID,0.0,VALID,104.0,VALID,0.0,VALID,23.636,VALID,40.0,VALID,0.061,
2011-09-04, 02:25:05,VALID,1009.883,VALID,0.0,VALID,104.0,VALID,0.0,VALID,23.636,VALID,40.0,VALID,0.245,
2011-09-04, 02:26:05,VALID,1009.877,VALID,0.0,VALID,104.0,VALID,0.0,VALID,23.655,VALID,40.0,VALID,0.263,
2011-09-04, 02:27:05,VALID,1009.917,VALID,0.0,VALID,104.0,VALID,0.0,VALID,23.657,VALID,40.0,VALID,0.141,
2011-09-04, 02:28:05,VALID,1009.897,VALID,0.0,VALID,104.0,VALID,0.0,VALID,23.655,VALID,40.0,VALID,0.232,
2011-09-04, 02:29:05,VALID,1009.894,VALID,0.0,VALID,104.0,VALID,0.0,VALID,23.655,VALID,40.0,VALID,0.114,
2011-09-04, 02:30:05,VALID,1009.903,VALID,0.0,VALID,104.0,VALID,0.0,VALID,23.655,VALID,40.0,VALID,0.0,
2011-09-04, 02:31:05,VALID,1009.918,VALID,0.0,VALID,104.0,VALID,0.0,VALID,23.655,VALID,40.0,VALID,0.111,
2011-09-04, 02:32:05,VALID,1009.953,VALID,0.0,VALID,104.0,VALID,0.0,VALID,23.637,VALID,40.0,VALID,0.225,
2011-09-04, 02:33:05,VALID,1009.922,VALID,0.0,VALID,104.0,VALID,0.0,VALID,23.616,VALID,40.0,VALID,0.17,
2011-09-04, 02:34:05,VALID,1009.935,VALID,0.0,VALID,104.0,VALID,0.0,VALID,23.616,VALID,40.0,VALID,0.232,
2011-09-04, 02:35:05,VALID,1009.934,VALID,0.0,VALID,103.954,VALID,0.0,VALID,23.597,VALID,40.0,VALID,0.0,
2011-09-04, 02:36:05,VALID,1009.914,VALID,0.0,VALID,103.954,VALID,0.0,VALID,23.577,VALID,40.0,VALID,0.446,
2011-09-04, 02:37:05,VALID,1009.921,VALID,0.0,VALID,103.916,VALID,0.0,VALID,23.579,VALID,40.0,VALID,0.306,
2011-09-04, 02:38:05,VALID,1009.91,VALID,0.0,VALID,103.954,VALID,0.0,VALID,23.558,VALID,40.0,VALID,0.367,
2011-09-04, 02:39:05,VALID,1009.916,VALID,0.0,VALID,103.924,VALID,0.0,VALID,23.577,VALID,40.0,VALID,0.232,
2011-09-04, 02:40:05,VALID,1009.919,VALID,0.0,VALID,103.893,VALID,0.0,VALID,23.558,VALID,40.0,VALID,0.271,
2011-09-04, 02:41:05,VALID,1009.92,VALID,0.0,VALID,103.886,VALID,0.0,VALID,23.577,VALID,40.0,VALID,0.475,
2011-09-04, 02:42:05,VALID,1009.95,VALID,0.0,VALID,103.848,VALID,0.0,VALID,23.558,VALID,40.0,VALID,0.336,
2011-09-04, 02:43:05,VALID,1009.943,VALID,0.0,VALID,103.825,VALID,0.0,VALID,23.577,VALID,40.0,VALID,0.27,
2011-09-04, 02:44:05,VALID,1009.977,VALID,0.0,VALID,103.794,VALID,0.0,VALID,23.558,VALID,40.0,VALID,0.286,
2011-09-04, 02:45:05,VALID,1009.997,VALID,0.0,VALID,103.764,VALID,0.0,VALID,23.558,VALID,40.0,VALID,0.405,
2011-09-04, 02:46:05,VALID,1010.004,VALID,0.0,VALID,103.764,VALID,0.0,VALID,23.579,VALID,40.0,VALID,0.296,
2011-09-04, 02:47:05,VALID,1010.0,VALID,0.0,VALID,103.741,VALID,0.0,VALID,23.558,VALID,40.0,VALID,0.47,
2011-09-04, 02:48:05,VALID,1009.981,VALID,0.0,VALID,103.748,VALID,0.0,VALID,23.558,VALID,40.0,VALID,0.484,
2011-09-04, 02:49:05,VALID,1009.974,VALID,0.0,VALID,103.741,VALID,0.0,VALID,23.579,VALID,41.0,VALID,0.388,
2011-09-04, 02:50:05,VALID,1009.994,VALID,0.0,VALID,103.71,VALID,0.0,VALID,23.558,VALID,41.0,VALID,0.405,
2011-09-04, 02:51:05,VALID,1009.973,VALID,0.0,VALID,103.68,VALID,0.0,VALID,23.558,VALID,41.0,VALID,0.182,
2011-09-04, 02:52:05,VALID,1009.964,VALID,0.0,VALID,103.664,VALID,0.0,VALID,23.577,VALID,41.0,VALID,0.143,
2011-09-04, 02:53:05,VALID,1009.966,VALID,0.0,VALID,103.619,VALID,0.0,VALID,23.598,VALID,41.0,VALID,0.008,
2011-09-04, 02:54:05,VALID,1009.946,VALID,0.0,VALID,103.603,VALID,0.0,VALID,23.579,VALID,41.0,VALID,0.007,
2011-09-04, 02:55:05,VALID,1009.929,VALID,0.0,VALID,103.619,VALID,0.0,VALID,23.579,VALID,41.0,VALID,0.111,
2011-09-04, 02:56:05,VALID,1009.935,VALID,0.0,VALID,103.68,VALID,0.0,VALID,23.618,VALID,41.0,VALID,0.0,
2011-09-04, 02:57:05,VALID,1009.933,VALID,0.0,VALID,103.695,VALID,0.0,VALID,23.598,VALID,41.0,VALID,0.284,
2011-09-04, 02:58:05,VALID,1009.93,VALID,0.0,VALID,103.764,VALID,0.0,VALID,23.597,VALID,41.0,VALID,0.218,
2011-09-04, 02:59:05,VALID,1009.92,VALID,0.0,VALID,103.832,VALID,0.0,VALID,23.637,VALID,41.0,VALID,0.237,
2011-09-04, 03:00:05,VALID,1009.918,VALID,0.0,VALID,103.87,VALID,0.0,VALID,23.616,VALID,42.0,VALID,0.196,
2011-09-04, 03:01:05,VALID,1009.897,VALID,0.0,VALID,103.909,VALID,0.0,VALID,23.597,VALID,41.0,VALID,0.075,
2011-09-04, 03:02:05,VALID,1009.879,VALID,0.0,VALID,103.924,VALID,0.0,VALID,23.597,VALID,83.0,VALID,0.73,
2011-09-04, 03:03:05,VALID,1009.861,VALID,0.0,VALID,103.939,VALID,0.0,VALID,23.597,VALID,99.0,VALID,0.829,
2011-09-04, 03:04:05,VALID,1009.87,VALID,0.0,VALID,103.863,VALID,0.0,VALID,23.657,VALID,99.0,VALID,0.522,
2011-09-04, 03:05:05,VALID,1009.87,VALID,0.0,VALID,103.809,VALID,0.0,VALID,23.657,VALID,100.0,VALID,0.279,
2011-09-04, 03:06:05,VALID,1009.858,VALID,0.0,VALID,103.756,VALID,0.0,VALID,23.657,VALID,100.0,VALID,0.306,
2011-09-04, 03:07:05,VALID,1009.864,VALID,0.0,VALID,103.672,VALID,0.0,VALID,23.657,VALID,100.0,VALID,0.298,
2011-09-04, 03:08:05,VALID,1009.829,VALID,0.0,VALID,103.626,VALID,0.0,VALID,23.657,VALID,100.0,VALID,0.371,
2011-09-04, 03:09:05,VALID,1009.82,VALID,0.0,VALID,103.55,VALID,0.0,VALID,23.616,VALID,100.0,VALID,0.448,
2011-09-04, 03:10:05,VALID,1009.851,VALID,0.0,VALID,103.565,VALID,0.0,VALID,23.657,VALID,100.0,VALID,0.287,
2011-09-04, 03:11:05,VALID,1009.839,VALID,0.0,VALID,103.558,VALID,0.0,VALID,23.636,VALID,100.0,VALID,0.104,
2011-09-04, 03:12:05,VALID,1009.866,VALID,0.0,VALID,103.527,VALID,0.0,VALID,23.637,VALID,100.0,VALID,0.0,
2011-09-04, 03:13:05,VALID,1009.874,VALID,0.0,VALID,103.565,VALID,0.0,VALID,23.636,VALID,100.0,VALID,0.001,
2011-09-04, 03:14:05,VALID,1009.908,VALID,0.0,VALID,103.611,VALID,0.0,VALID,23.655,VALID,100.0,VALID,0.205,
2011-09-04, 03:15:05,VALID,1009.934,VALID,0.0,VALID,103.611,VALID,0.0,VALID,23.657,VALID,99.0,VALID,0.34,
2011-09-04, 03:16:05,VALID,1009.941,VALID,0.0,VALID,103.588,VALID,0.0,VALID,23.597,VALID,99.0,VALID,0.336,
2011-09-04, 03:17:05,VALID,1009.957,VALID,0.0,VALID,103.573,VALID,0.0,VALID,23.598,VALID,99.0,VALID,0.33,
2011-09-04, 03:18:05,VALID,1009.939,VALID,0.0,VALID,103.603,VALID,0.0,VALID,23.579,VALID,97.0,VALID,0.192,
2011-09-04, 03:19:05,VALID,1009.942,VALID,0.0,VALID,103.642,VALID,0.0,VALID,23.558,VALID,97.0,VALID,0.088,
2011-09-04, 03:20:05,VALID,1009.953,VALID,0.0,VALID,103.649,VALID,0.0,VALID,23.558,VALID,97.0,VALID,0.132,
2011-09-04, 03:21:05,VALID,1009.94,VALID,0.0,VALID,103.733,VALID,0.0,VALID,23.538,VALID,97.0,VALID,0.156,
2011-09-04, 03:22:05,VALID,1009.938,VALID,0.0,VALID,103.802,VALID,0.0,VALID,23.538,VALID,97.0,VALID,0.163,
2011-09-04, 03:23:05,VALID,1009.947,VALID,0.0,VALID,103.84,VALID,0.106,VALID,23.538,VALID,97.0,VALID,0.078,
2011-09-04, 03:24:05,VALID,1009.946,VALID,0.0,VALID,103.878,VALID,0.0,VALID,23.538,VALID,97.0,VALID,0.144,
2011-09-04, 03:25:05,VALID,1009.928,VALID,0.0,VALID,103.954,VALID,0.0,VALID,23.538,VALID,97.0,VALID,0.165,
2011-09-04, 03:26:05,VALID,1009.941,VALID,0.0,VALID,104.0,VALID,0.0,VALID,23.559,VALID,97.0,VALID,0.021,
2011-09-04, 03:27:05,VALID,1009.951,VALID,0.0,VALID,104.0,VALID,0.0,VALID,23.54,VALID,97.0,VALID,0.126,
2011-09-04, 03:28:05,VALID,1009.97,VALID,0.0,VALID,104.0,VALID,0.0,VALID,23.52,VALID,97.0,VALID,0.036,
2011-09-04, 03:29:05,VALID,1009.95,VALID,0.0,VALID,104.0,VALID,0.0,VALID,23.499,VALID,97.0,VALID,0.203,
2011-09-04, 03:30:05,VALID,1009.988,VALID,0.0,VALID,104.0,VALID,0.0,VALID,23.48,VALID,97.0,VALID,0.289,
2011-09-04, 03:31:05,VALID,1010.009,VALID,0.0,VALID,104.0,VALID,0.0,VALID,23.46,VALID,97.0,VALID,0.275,
2011-09-04, 03:32:04,VALID,1010.052,VALID,0.0,VALID,104.0,VALID,0.0,VALID,23.46,VALID,97.0,VALID,0.237,
2011-09-04, 03:33:04,VALID,1010.043,VALID,0.0,VALID,104.0,VALID,0.0,VALID,23.441,VALID,97.0,VALID,0.227,
2011-09-04, 03:34:04,VALID,1010.058,VALID,0.0,VALID,104.0,VALID,0.0,VALID,23.421,VALID,97.0,VALID,0.171,
2011-09-04, 03:35:04,VALID,1010.094,VALID,0.0,VALID,104.0,VALID,0.0,VALID,23.442,VALID,97.0,VALID,0.173,
2011-09-04, 03:36:04,VALID,1010.089,VALID,0.0,VALID,104.0,VALID,0.0,VALID,23.421,VALID,97.0,VALID,0.158,
2011-09-04, 03:37:04,VALID,1010.1,VALID,0.0,VALID,104.0,VALID,0.0,VALID,23.402,VALID,97.0,VALID,0.117,
2011-09-04, 03:38:04,VALID,1010.068,VALID,0.0,VALID,104.0,VALID,0.0,VALID,23.423,VALID,97.0,VALID,0.0,
2011-09-04, 03:39:04,VALID,1010.103,VALID,0.0,VALID,104.0,VALID,0.0,VALID,23.442,VALID,97.0,VALID,0.143,
2011-09-04, 03:40:04,VALID,1010.113,VALID,0.0,VALID,104.0,VALID,0.0,VALID,23.402,VALID,97.0,VALID,0.195,
2011-09-04, 03:41:04,VALID,1010.11,VALID,0.0,VALID,104.0,VALID,0.0,VALID,23.402,VALID,97.0,VALID,0.144,
2011-09-04, 03:42:04,VALID,1010.128,VALID,0.0,VALID,104.0,VALID,0.0,VALID,23.423,VALID,96.0,VALID,0.163,
2011-09-04, 03:43:04,VALID,1010.123,VALID,0.0,VALID,104.0,VALID,0.0,VALID,23.402,VALID,97.0,VALID,0.135,